TimeMDT,TemperatureF,Dew PointF,Humidity,Sea Level PressureIn,VisibilityMPH,Wind Direction,Wind SpeedMPH,Gust SpeedMPH,PrecipitationIn,Events,Conditions,WindDirDegrees,DateUTC
5:00 AM,48.2,48.2,100,30.08,10.0,WSW,4.6,-,N/A,Fog,Shallow Fog,240,2013-07-20 11:00:00
6:00 AM,48,48,100,30.06,15,West,2.3,,,,,280,2013-07-20 12:00:00
6:00 AM,48.2,48.2,100,30.06,15.0,West,2.3,-,N/A,Fog,Shallow Fog,270,2013-07-20 12:00:00
7:00 AM,48.2,48.2,100,30.06,30.0,North,3.5,-,N/A,Fog,Shallow Fog,350,2013-07-20 13:00:00
7:42 AM,50.0,50.0,100,30.04,1.0,WNW,3.5,-,N/A,,Clear,300,2013-07-20 13:42:00
8:00 AM,51.8,51.8,100,30.03,1.5,NW,3.5,-,N/A,,Clear,310,2013-07-20 14:00:00
8:06 AM,51.8,51.8,100,30.03,30.0,NW,3.5,-,N/A,,Clear,310,2013-07-20 14:06:00
9:00 AM,57.2,55.4,94,30.00,30.0,Calm,Calm,-,N/A,,Clear,0,2013-07-20 15:00:00
10:00 AM,62.6,55.4,77,29.98,30.0,Calm,Calm,-,N/A,,Clear,0,2013-07-20 16:00:00
11:00 AM,68.0,55.4,64,29.96,30.0,SSW,4.6,-,N/A,,Clear,200,2013-07-20 17:00:00
12:00 PM,73,55,43,29.93,28,Calm,Calm,,,,,,2013-07-20 18:00:00
12:00 PM,73.4,55.4,53,29.92,30.0,Calm,Calm,-,N/A,,Partly Cloudy,0,2013-07-20 18:00:00
1:00 PM,77.0,55.4,47,29.89,30.0,NW,5.8,-,N/A,,Scattered Clouds,320,2013-07-20 19:00:00
2:00 PM,80.6,51.8,37,29.87,30.0,West,10.4,19.6,N/A,,Scattered Clouds,270,2013-07-20 20:00:00
3:00 PM,78.8,53.6,42,29.86,30.0,South,11.5,19.6,N/A,,Scattered Clouds,170,2013-07-20 21:00:00
4:00 PM,77.0,59.0,54,29.86,30.0,ENE,11.5,17.3,N/A,,Scattered Clouds,70,2013-07-20 22:00:00
5:00 PM,77.0,57.2,50,29.85,30.0,East,12.7,-,N/A,,Scattered Clouds,100,2013-07-20 23:00:00
6:00 PM,75,57,44,29.83,28,East,12.7,,,,Scattered Clouds,100,2013-07-21 00:00:00
6:00 PM,75.2,57.2,53,29.82,30.0,East,11.5,-,N/A,,Scattered Clouds,100,2013-07-21 00:00:00
7:00 PM,75.2,57.2,53,29.82,30.0,SSE,9.2,-,N/A,,Mostly Cloudy,160,2013-07-21 01:00:00
8:00 PM,73.4,59.0,61,29.80,30.0,SSE,9.2,-,N/A,,Scattered Clouds,150,2013-07-21 02:00:00
9:00 PM,68.0,57.2,68,29.80,30.0,ESE,5.8,-,N/A,,Partly Cloudy,120,2013-07-21 03:00:00
10:00 PM,64.4,57.2,77,29.79,30.0,Calm,Calm,-,N/A,,Partly Cloudy,0,2013-07-21 04:00:00